EHI
4 2 1 0 0 0 0 0 0 0 0 0 0 0 0 0 0 0 0 0 0 0 0 1 1 1 1 1 0 0 0 0 0 0 0 0 0 0 0 0 0 0 1 1 0 0 0 0 0
1 1 0 0 0 0 0 0 0 0 0 0 0 0 0 0 0 0 0 0 0 0 1 2 2 2 2 1 1 1 0 0 0 1 1 1 1 1 0 0 0 0 1 2 1 0 0 0 0
0 0 0 0 0 0 0 0 0 0 0 0 0 0 0 0 0 0 0 0 0 0 1 2 2 1 1 1 2 3 2 1 1 1 2 3 3 2 1 1 1 0 1 2 2 0 0 0 0
0 0 0 0 0 0 0 0 0 0 0 0 0 0 0 0 0 0 0 0 0 0 0 1 1 1 1 1 1 2 3 3 1 2 3 4 4 3 1 2 1 1 1 2 1 1 0 0 0
0 0 0 0 0 0 0 0 0 0 0 0 0 0 0 0 0 0 0 0 0 0 0 1 1 1 1 1 0 1 2 2 2 2 3 5 6 4 3 2 1 1 1 1 1 2 1 0 0
0 0 0 0 0 0 0 0 0 0 0 0 0 0 0 0 0 0 0 0 0 0 0 1 1 0 1 1 0 0 0 1 1 1 2 5 7 6 5 3 1 1 1 1 2 2 1 0 0
0 0 0 0 0 0 0 0 0 0 0 0 0 0 0 0 0 0 0 0 0 0 0 0 0 0 0 0 0 0 0 0 0 0 0 2 4 4 4 3 2 2 2 2 1 1 1 1 0
0 0 0 0 0 0 0 0 0 0 0 0 0 0 0 0 0 0 0 0 0 0 0 0 0 0 0 0 0 0 0 0 0 0 0 0 1 1 1 1 2 2 3 1 1 1 2 2 1
0 0 0 0 0 0 0 0 0 0 0 0 0 0 0 0 0 0 0 0 0 0 0 0 0 0 0 0 0 0 0 0 0 0 0 0 0 0 0 1 2 2 2 1 0 1 2 2 1
0 0 0 0 0 0 0 0 0 0 0 0 0 0 0 0 0 0 0 0 0 0 0 0 0 0 0 0 0 0 0 0 0 0 0 0 0 0 0 0 1 1 1 0 0 0 1 1 0
0 0 0 0 0 0 0 0 0 0 0 0 0 0 0 0 0 0 0 0 0 0 0 0 0 0 0 0 0 0 0 0 0 0 0 0 0 0 0 0 0 0 0 0 0 0 0 0 0
0 0 0 0 0 0 0 0 0 0 0 0 0 0 0 0 0 0 0 0 0 0 0 0 0 0 0 0 0 0 0 0 0 0 0 0 0 0 0 0 0 0 0 0 0 1 0 0 0
0 0 0 0 0 0 0 0 0 0 0 0 0 0 0 0 0 0 0 0 0 0 0 0 0 0 0 0 0 0 0 0 0 0 0 0 0 0 0 0 0 0 0 0 0 0 0 0 0
0 0 0 0 0 0 0 0 0 0 0 0 0 0 0 0 0 0 0 0 0 0 0 0 0 0 0 0 0 0 0 0 0 0 0 0 0 0 0 0 0 0 0 0 0 0 0 0 0
0 0 0 0 0 0 0 0 0 0 0 0 0 0 0 0 0 0 0 0 0 0 0 0 0 0 0 0 0 0 0 0 0 0 0 0 0 0 0 0 0 0 0 0 0 0 0 0 0
0 0 0 0 0 0 0 0 0 0 0 0 0 0 0 0 0 0 0 0 0 0 0 0 0 0 0 0 0 0 0 0 0 0 0 0 0 0 0 0 0 0 0 0 0 0 0 0 0
0 0 0 0 0 0 0 0 0 0 0 0 0 0 0 0 0 0 0 0 0 0 0 0 0 0 0 0 0 0 0 0 0 0 0 0 0 0 0 0 0 0 0 0 0 0 0 0 0
0 0 0 0 0 0 0 0 0 0 0 0 0 0 0 0 0 0 0 0 0 0 0 0 0 0 0 0 0 0 0 0 0 0 0 0 0 0 0 0 0 0 0 0 0 0 0 0 0
0 0 0 0 0 0 0 0 0 0 0 0 0 0 0 0 0 0 0 0 0 0 0 0 0 0 0 0 0 0 0 0 0 0 0 0 0 0 0 0 0 0 0 0 0 0 0 0 0
0 0 0 0 0 0 0 0 0 0 0 0 0 0 0 0 0 0 0 0 0 0 0 0 0 0 0 0 0 0 0 0 0 0 0 0 0 0 0 0 0 0 0 0 0 0 0 0 0
0 0 0 0 0 0 0 0 0 0 0 0 0 0 0 0 0 0 0 0 0 0 0 0 0 0 0 0 0 0 0 0 0 0 0 0 0 0 0 0 0 0 0 0 0 0 0 0 0
0 0 0 0 0 0 0 0 0 0 0 0 0 0 0 0 0 0 0 0 0 0 0 0 0 0 0 0 0 0 0 0 0 0 0 0 0 0 0 0 0 0 0 0 0 0 0 0 0
0 0 0 0 0 0 0 0 0 0 0 0 0 0 0 0 0 0 0 0 0 0 0 0 0 0 0 0 0 0 0 0 0 0 0 0 0 0 0 0 0 0 0 0 0 0 0 0 0
0 0 0 0 0 0 0 0 0 0 0 0 0 0 0 0 0 0 0 0 0 0 0 0 0 0 0 0 0 0 0 0 0 0 0 0 0 0 0 0 0 0 0 0 0 0 0 0 0
0 0 0 0 0 0 0 0 0 0 0 0 0 0 0 0 0 0 0 0 0 0 0 0 0 0 0 0 0 0 0 0 0 0 0 0 0 0 0 0 0 0 0 0 0 0 0 0 0
0 0 0 0 0 0 0 0 0 0 0 0 0 0 0 0 0 0 0 0 0 0 0 0 0 0 0 0 0 0 0 0 0 0 0 0 0 0 0 0 0 0 0 0 0 0 0 0 0
0 0 0 0 0 0 0 0 0 0 0 0 0 0 0 0 0 0 0 0 0 0 0 0 0 0 0 0 0 0 0 0 0 0 0 0 0 0 0 0 0 0 0 0 0 0 0 0 0
0 0 0 0 0 0 0 0 0 0 0 0 0 0 0 0 0 0 0 0 0 0 0 0 0 0 0 0 0 0 0 0 0 0 0 0 0 0 0 0 0 0 0 0 0 0 0 0 0
0 0 0 0 0 0 0 0 0 0 0 0 0 0 0 0 0 0 0 0 0 0 0 0 0 0 0 0 0 0 0 0 0 0 0 0 0 0 0 0 0 0 0 0 0 0 0 0 0
0 0 0 0 0 0 0 0 0 0 0 0 0 0 0 0 0 0 0 0 0 0 0 0 0 0 0 0 0 0 0 0 0 0 0 0 0 0 0 0 0 0 0 0 0 0 0 0 0
Wind_Speed
10 8 4 2 3 2 1 1 1 2 4 5 5 3 4 6 5 5 5 4 4 6 6 6 4 3 2 2 2 2 2 2 2 3 3 3 4 4 4 4 3 3 3 3 2 2 1 1 1
9 7 3 3 3 2 2 1 3 4 5 4 4 3 4 6 6 6 5 5 5 6 5 5 6 4 3 3 2 1 1 2 2 3 4 4 5 5 5 4 4 4 4 4 3 3 3 2 2
9 4 3 3 2 1 2 3 4 5 4 1 3 4 4 5 5 5 5 6 6 6 6 7 6 5 4 4 4 4 3 3 4 4 4 5 5 5 5 5 5 4 4 4 5 5 5 4 3
6 4 3 3 2 1 1 3 4 5 3 2 3 5 6 5 4 6 7 6 7 7 7 8 7 6 6 5 5 4 4 4 4 5 4 5 5 6 6 7 6 5 5 5 5 6 6 5 4
4 3 4 3 2 2 2 3 3 2 3 3 3 6 7 6 7 8 7 7 7 7 6 7 7 6 6 5 4 3 3 3 4 4 4 4 5 6 7 7 7 6 6 6 6 7 7 7 6
4 4 4 3 4 3 3 4 3 3 4 4 4 6 7 7 8 8 7 6 7 6 6 6 7 6 6 5 4 3 2 2 3 4 4 4 4 5 5 6 6 7 7 7 7 9 8 8 8
4 3 3 2 3 3 4 4 3 3 4 4 3 5 7 8 7 7 6 6 6 5 5 4 4 4 4 5 5 5 4 4 3 4 4 3 4 4 5 5 5 6 7 8 8 9 9 8 8
3 3 3 2 3 4 5 4 2 2 4 4 2 3 6 10 9 7 6 5 5 4 3 3 3 4 4 3 5 5 5 5 4 3 3 3 4 4 4 6 5 6 6 7 7 8 8 8 7
4 4 3 2 1 4 6 5 4 2 5 4 2 3 7 12 10 8 6 5 4 3 2 3 3 4 4 4 4 3 2 2 4 2 1 5 5 4 4 3 3 5 5 6 6 7 8 8 6
5 4 1 1 1 2 5 5 6 6 6 5 6 7 10 11 10 8 6 4 3 2 2 2 2 3 3 4 3 3 4 3 4 4 4 4 4 3 5 2 4 5 5 6 6 6 7 7 4
4 3 0 1 1 2 4 4 5 5 4 5 8 12 12 11 9 7 5 3 2 2 1 2 2 3 4 3 4 4 3 3 4 5 5 4 4 3 4 3 3 4 5 5 5 6 5 5 5
4 2 2 1 2 4 5 4 5 6 1 3 7 12 13 11 9 7 5 3 2 1 1 2 2 3 4 5 4 4 4 4 4 4 5 4 3 4 4 3 3 3 3 3 4 3 4 6 7
6 3 4 3 4 5 5 5 4 6 3 5 10 12 12 10 8 6 4 4 3 2 1 1 2 4 4 4 4 4 4 5 4 4 4 5 4 4 4 4 3 4 3 3 3 4 4 5 6
4 3 3 4 5 5 6 6 6 5 7 9 12 12 11 10 9 7 6 5 4 3 2 1 1 3 4 4 4 4 4 3 4 4 5 5 4 4 4 5 4 4 3 3 3 4 3 4 4
4 4 4 5 6 4 5 7 8 6 9 11 12 12 11 10 9 8 6 5 4 3 2 1 1 2 4 5 5 4 4 4 4 4 5 5 5 5 5 5 4 4 4 4 4 4 3 3 4
5 5 5 5 6 5 7 6 4 7 10 11 11 11 11 10 10 8 6 5 4 3 2 2 1 2 3 4 5 4 3 4 4 4 4 6 6 6 5 4 4 4 4 4 3 3 3 3 4
7 6 5 4 6 5 8 6 3 7 10 11 11 11 11 11 11 8 7 6 5 4 3 2 0 1 2 3 3 3 3 3 3 3 4 5 6 6 5 4 5 5 3 3 4 2 3 3 4
7 6 4 4 5 7 9 9 4 7 10 11 11 11 11 11 10 9 8 7 6 5 4 2 2 1 2 2 2 2 2 3 3 3 4 6 5 6 6 4 5 5 4 3 3 3 3 3 3
3 4 4 1 2 6 9 11 9 8 10 11 12 12 12 11 9 8 8 8 7 6 5 3 2 1 1 1 2 3 2 3 2 3 5 5 5 6 5 5 5 5 4 4 5 3 3 2 2
5 6 5 2 2 5 8 12 11 9 12 12 12 13 13 11 10 10 10 9 9 7 5 4 2 1 0 1 2 2 3 3 3 3 3 4 5 5 5 5 4 4 4 4 4 3 3 2 2
8 7 6 4 2 5 7 10 8 7 9 10 11 12 12 12 12 12 11 10 9 8 7 4 3 2 1 0 1 2 1 2 1 2 2 4 5 4 5 6 5 5 4 4 4 4 3 3 2
7 3 5 5 6 4 4 8 5 4 7 10 11 12 12 12 11 11 11 11 10 9 7 6 4 3 2 2 2 3 3 3 3 3 3 3 3 4 4 5 5 5 4 4 4 4 3 3 2
1 1 3 5 6 8 6 8 5 3 6 8 10 11 12 12 12 12 12 11 10 9 7 6 5 4 3 2 1 3 3 2 2 3 3 3 3 3 4 5 5 4 4 4 4 4 4 3 3
5 4 4 5 6 8 4 7 6 2 2 2 4 8 11 11 12 11 10 10 9 9 8 7 6 5 4 4 4 4 3 3 3 3 3 3 2 2 3 4 4 4 4 4 4 4 3 3 3
7 7 5 5 5 3 1 6 6 2 2 3 3 4 8 11 12 12 12 12 11 10 9 8 8 6 5 5 5 4 4 4 4 4 2 3 3 2 4 4 4 4 4 4 4 4 3 3 3
8 8 6 5 5 4 3 7 4 1 3 4 5 4 6 10 11 12 12 12 11 11 10 9 8 7 6 6 5 4 4 4 3 3 4 3 3 3 4 4 4 4 4 4 3 3 3 3 3
6 6 4 7 7 8 5 5 7 3 5 5 5 5 7 10 11 12 11 11 11 11 11 10 9 8 7 6 5 5 4 4 4 4 4 3 3 3 4 4 4 3 3 4 4 3 3 3 3
4 2 4 6 6 8 6 7 5 3 2 4 6 7 7 8 10 11 11 11 11 10 10 10 9 8 7 6 5 4 4 4 4 4 4 4 3 3 4 4 3 3 2 3 3 3 3 4 2
6 5 6 6 6 7 8 5 2 5 5 5 6 6 7 8 10 10 10 11 10 10 10 10 9 8 7 7 6 6 5 4 4 4 3 4 4 3 4 3 4 3 3 3 2 4 3 4 3
6 7 8 9 9 8 9 8 1 4 5 6 6 6 7 8 9 10 10 11 11 11 10 10 9 9 7 7 6 6 5 5 5 4 4 4 3 3 4 3 4 3 3 3 3 3 3 4 4
Wind_Direction
146 146 159 200 220 222 189 40 19 75 69 60 47 40 42 36 15 52 73 82 109 125 129 136 133 137 143 152 170 184 198 204 210 219 221 224 230 229 226 227 230 232 234 234 240 250 250 227 211
147 152 188 216 233 176 119 80 85 66 92 100 72 59 69 70 56 76 84 86 104 111 117 108 99 93 81 68 49 1 290 273 262 256 252 250 249 247 245 247 249 251 255 255 255 257 252 252 257
147 179 221 220 220 170 119 104 105 98 98 87 87 62 53 68 71 78 85 105 104 97 98 86 77 77 73 65 53 37 11 340 314 292 279 274 268 266 263 264 263 264 263 261 262 263 257 253 256
162 193 224 230 183 142 122 130 130 129 118 97 117 101 85 58 60 88 102 107 102 95 89 84 67 64 62 61 58 47 18 353 335 317 298 295 290 281 274 270 265 263 267 269 272 273 269 262 259
201 221 218 209 183 148 156 155 171 161 118 114 118 104 98 88 96 106 105 100 99 99 95 87 67 57 49 46 47 46 19 347 328 314 311 298 285 274 274 273 273 269 268 268 266 268 266 262 257
200 229 230 203 160 140 149 164 174 147 119 124 126 113 102 117 123 114 111 105 99 96 92 91 85 58 41 30 25 20 12 346 328 318 319 315 303 293 284 279 273 269 269 268 265 260 254 253 253
239 236 242 210 161 147 136 158 182 149 133 123 131 119 124 139 132 129 124 115 105 98 87 75 74 79 71 51 30 16 5 355 338 326 319 318 312 297 287 277 272 265 262 264 261 258 258 251 252
259 254 221 201 177 140 140 158 146 149 109 112 165 140 139 150 148 143 136 129 120 107 90 72 51 33 23 44 54 18 8 3 347 335 331 311 271 258 265 265 270 266 261 260 262 259 258 251 250
237 244 221 170 171 131 155 166 146 146 140 144 138 70 114 139 153 157 155 150 137 112 88 68 44 38 21 1 32 355 352 3 295 260 266 273 277 279 250 270 281 265 262 258 258 265 262 250 237
220 246 215 112 164 139 173 185 162 173 172 164 144 126 134 152 166 170 171 162 149 128 98 63 31 24 10 357 359 341 335 343 320 325 319 299 299 291 288 224 250 259 257 247 238 246 249 242 229
215 244 146 173 196 192 184 191 185 194 191 183 165 155 158 166 174 178 176 164 136 122 87 36 13 16 0 356 350 347 338 337 324 333 320 302 296 285 274 278 233 238 237 246 229 233 229 227 228
205 210 221 199 178 203 201 189 197 215 189 140 155 156 164 175 180 184 181 170 166 164 61 32 358 3 2 357 351 334 337 337 336 338 330 319 312 302 306 292 304 287 265 258 257 249 240 233 232
212 188 197 208 204 213 209 206 217 213 183 159 154 163 173 179 181 183 185 185 193 187 187 60 348 354 358 1 335 336 345 340 340 337 325 328 315 313 312 298 298 286 287 267 263 258 249 244 233
199 192 196 203 201 203 210 212 217 204 176 169 171 176 182 184 188 189 195 203 202 199 189 139 333 356 344 343 339 352 344 341 335 344 340 336 329 324 313 303 301 301 295 291 276 265 255 247 238
169 197 208 209 206 198 214 221 218 187 178 180 185 186 187 191 196 206 205 209 203 193 187 148 317 337 344 346 347 342 337 342 348 355 345 345 339 329 319 314 312 313 302 288 276 271 263 247 236
188 215 222 190 199 190 222 245 179 175 188 192 195 190 194 199 208 209 207 209 196 194 184 152 258 330 353 348 334 335 341 344 346 349 348 348 346 339 330 323 322 317 305 295 283 274 262 257 250
201 220 223 183 194 198 225 258 164 178 198 203 201 199 200 203 210 207 204 205 196 195 192 182 150 332 348 343 324 328 336 340 340 348 357 350 349 342 337 337 329 324 313 302 295 292 281 271 264
205 221 227 215 180 214 234 251 220 197 213 218 211 209 207 212 208 202 198 197 194 195 192 164 158 288 339 320 317 331 325 330 347 352 1 351 344 346 340 330 336 335 323 318 311 300 283 280 270
230 238 250 247 179 233 251 263 252 220 219 224 219 215 215 215 205 192 190 190 193 193 195 173 209 160 309 334 325 336 346 335 345 353 359 346 345 345 344 334 345 338 337 330 322 314 290 279 276
232 249 255 221 179 250 273 273 265 238 227 229 227 219 215 211 202 190 192 191 199 192 192 190 183 176 326 5 338 336 334 325 345 332 340 346 348 347 340 345 337 346 336 333 335 328 308 294 273
233 254 277 289 250 232 281 272 247 224 227 227 229 229 221 211 208 194 193 193 194 193 189 188 181 178 180 237 312 300 288 269 287 341 355 351 345 344 340 343 339 341 334 345 341 335 324 306 291
240 267 269 259 259 265 276 294 277 212 225 223 220 217 217 207 207 197 192 193 193 188 184 186 179 187 178 214 285 320 317 337 352 338 347 336 347 347 341 339 339 341 343 343 336 353 331 310 304
264 16 242 247 262 275 249 273 283 193 239 219 211 211 210 204 201 195 193 192 189 180 180 185 182 191 196 229 252 278 302 333 332 324 333 328 5 353 352 344 342 343 341 347 345 341 336 322 315
152 170 175 214 249 265 282 272 283 230 249 213 194 203 203 198 195 193 187 186 183 178 180 186 192 195 201 223 237 262 298 304 314 322 338 329 350 347 8 345 339 339 343 343 339 331 335 335 328
208 233 233 229 234 269 95 262 270 310 280 274 263 213 197 191 190 187 184 185 184 184 187 191 197 201 206 220 235 246 263 281 291 311 328 321 337 349 360 341 333 340 340 338 332 322 332 330 326
210 243 270 289 293 301 225 253 278 340 269 268 259 239 199 190 191 190 189 188 187 188 190 195 201 207 208 222 233 242 247 263 287 297 304 309 326 342 340 330 330 335 332 326 333 318 329 327 322
198 224 291 291 291 286 271 268 282 238 243 233 223 210 199 192 191 192 190 190 189 190 192 196 202 208 209 218 227 237 248 259 274 276 283 298 307 321 318 315 319 328 331 330 327 324 330 325 315
301 196 206 255 286 285 282 277 281 297 280 225 216 212 201 193 192 193 191 192 192 191 191 195 204 210 208 214 220 228 247 249 264 276 285 291 295 304 297 306 310 316 319 315 315 313 333 312 315
178 203 237 256 272 285 293 295 343 305 308 274 239 219 206 197 196 193 191 192 190 188 189 194 199 206 207 212 215 219 227 240 250 256 272 274 281 277 285 299 304 313 318 313 313 309 313 305 309
250 247 236 257 261 257 279 285 293 264 281 274 259 228 212 205 199 195 193 189 189 192 193 196 200 201 203 209 212 219 224 229 240 242 251 260 269 277 284 293 294 304 308 310 313 313 306 307 312